TimeCST,TemperatureF,Dew PointF,Humidity,Sea Level PressureIn,VisibilityMPH,Wind Direction,Wind SpeedMPH,Gust SpeedMPH,PrecipitationIn,Events,Conditions,WindDirDegrees,DateUTC
12:53 AM,6.1,1.0,80,30.38,10.0,NNW,8.1,-,N/A,,Clear,340,2012-11-26 06:53:00
1:53 AM,6.1,-0.0,76,30.38,10.0,North,8.1,-,N/A,,Clear,350,2012-11-26 07:53:00
2:53 AM,5.0,-0.9,76,30.42,10.0,NW,5.8,-,N/A,,Clear,310,2012-11-26 08:53:00
3:53 AM,5.0,-0.9,76,30.43,10.0,NW,5.8,-,N/A,,Clear,310,2012-11-26 09:53:00
4:53 AM,1.9,-2.9,80,30.45,10.0,WNW,4.6,-,N/A,,Clear,300,2012-11-26 10:53:00
5:53 AM,1.4,-4.0,78,30.40,10.0,West,3.5,-,N/A,,Clear,280,2012-11-26 11:53:00
6:53 AM,1.9,-4.0,76,30.48,10.0,WNW,5.8,-,N/A,,Clear,290,2012-11-26 12:53:00
7:53 AM,1.0,-5.1,75,30.50,10.0,West,5.8,-,N/A,,Clear,270,2012-11-26 13:53:00
8:53 AM,5.0,-2.0,73,30.50,10.0,WSW,5.8,-,N/A,,Clear,250,2012-11-26 14:53:00
9:53 AM,8.1,1.0,73,30.52,10.0,West,4.6,-,N/A,,Clear,260,2012-11-26 15:53:00
10:53 AM,10.9,3.0,70,30.51,10.0,SW,5.8,-,N/A,,Clear,220,2012-11-26 16:53:00
11:53 AM,14.0,5.0,67,30.48,10.0,WSW,6.9,-,N/A,,Clear,250,2012-11-26 17:53:00
12:53 PM,16.0,6.1,65,30.46,10.0,WSW,10.4,-,N/A,,Clear,240,2012-11-26 18:53:00
1:53 PM,18.0,7.0,62,30.42,10.0,SSW,11.5,-,N/A,,Clear,200,2012-11-26 19:53:00
2:53 PM,21.0,8.1,57,30.39,10.0,SSW,9.2,-,N/A,,Clear,200,2012-11-26 20:53:00
3:53 PM,21.9,9.0,58,30.38,10.0,South,11.5,-,N/A,,Overcast,190,2012-11-26 21:53:00
4:53 PM,23.0,9.0,55,30.34,10.0,South,10.4,-,N/A,,Overcast,180,2012-11-26 22:53:00
5:53 PM,24.1,10.9,57,30.32,10.0,South,12.7,-,N/A,,Mostly Cloudy,190,2012-11-26 23:53:00
6:53 PM,23.0,10.0,58,30.30,10.0,South,12.7,-,N/A,,Scattered Clouds,190,2012-11-27 00:53:00
7:53 PM,24.1,12.0,60,30.29,10.0,SSW,11.5,-,N/A,,Overcast,200,2012-11-27 01:53:00
8:11 PM,24.8,12.2,59,30.23,10.0,SSW,11.5,-,N/A,,Overcast,200,2012-11-27 02:11:00
8:53 PM,21.9,10.9,63,30.28,10.0,South,10.4,-,N/A,,Mostly Cloudy,190,2012-11-27 02:53:00
9:53 PM,21.0,10.9,65,30.27,10.0,South,10.4,-,N/A,,Scattered Clouds,180,2012-11-27 03:53:00
10:53 PM,21.0,10.9,65,30.25,10.0,South,9.2,-,N/A,,Scattered Clouds,180,2012-11-27 04:53:00
11:53 PM,21.0,10.9,65,30.24,10.0,South,10.4,-,N/A,,Scattered Clouds,180,2012-11-27 05:53:00